Location: Marsån
(66.4167°N, 22.2833°E)
Time: 11:43:37
(UTC+00:00)

Cosmos 1515 Rocket - Pass Details

Date: 24 February 2024
Orbit: 603 x 626 km, 82.5° (Epoch: 15 April)

Event Time Altitude Azimuth Distance (km) Brightness Sun altitude
Rises 18:57:25 0° 340° (NNW) 2,896 7.7 -21.5°
Reaches altitude 10° 18:59:40 10° 344° (NNW) 1,991 6.7 -21.7°
Maximum altitude 19:04:02 59° 65° (ENE) 723 3.6 -22.1°
Enters shadow 19:04:05 59° 69° (ENE) 724 3.6 -22.1°
